KB3FKJ Weather Reports


time (UTC)temp
C
wind
direction
speed
KPH
gust
KPH
rain 1hr
cm
rain 24hr
cm
rain mn
cm
humidity
%
barometer
mb
20260507124701 8 123 1.6 3.2 0.00 0.00 0.00 59 1012.9
20260507124159 8 152 0.0 3.2 0.00 0.00 0.00 59 1012.9
20260507123657 7 116 0.0 3.2 0.00 0.00 0.00 62 1012.9
20260507123154 7 125 0.0 3.2 0.00 0.00 0.00 62 1012.9
20260507122649 7 130 0.0 1.6 0.00 0.00 0.00 63 1012.8
20260507122145 7 128 0.0 1.6 0.00 0.00 0.00 68 1012.8
20260507121641 7 97 1.6 3.2 0.00 0.00 0.00 66 1012.8
20260507121137 6 115 0.0 3.2 0.00 0.00 0.00 68 1012.9
20260507120634 6 149 1.6 3.2 0.00 0.00 0.00 67 1012.8
20260507120130 6 120 0.0 0.0 0.00 0.00 0.00 69 1012.7
20260507115627 6 138 0.0 1.6 0.00 0.00 0.00 70 1012.6
20260507115122 6 123 0.0 0.0 0.00 0.00 0.00 71 1012.8
20260507114619 6 120 0.0 0.0 0.00 0.00 0.00 72 1012.6
20260507114116 5 116 0.0 0.0 0.00 0.00 0.00 72 1012.6
20260507113613 5 115 0.0 0.0 0.00 0.00 0.00 74 1012.5
20260507113110 5 120 0.0 0.0 0.00 0.00 0.00 74 1012.3
20260507112608 5 120 0.0 0.0 0.00 0.00 0.00 74 1012.6
20260507112104 5 129 0.0 0.0 0.00 0.00 0.00 74 1012.3
20260507111602 5 123 0.0 0.0 0.00 0.00 0.00 74 1012.5
20260507111058 5 129 0.0 0.0 0.00 0.00 0.00 75 1012.5
20260507110554 5 122 0.0 0.0 0.00 0.00 0.00 77 1012.3
20260507110051 5 119 0.0 0.0 0.00 0.00 0.00 75 1012.3
20260507105548 5 119 0.0 0.0 0.00 0.00 0.00 75 1012.1
20260507105044 5 119 0.0 0.0 0.00 0.00 0.00 77 1012.0
20260507104542 4 119 0.0 0.0 0.00 0.00 0.00 79 1012.0
20260507104038 3 126 0.0 0.0 0.00 0.00 0.00 79 1012.0
20260507103534 3 119 0.0 0.0 0.00 0.00 0.00 79 1012.1
20260507103031 3 119 0.0 0.0 0.00 0.00 0.00 81 1012.0
20260507102527 3 119 0.0 0.0 0.00 0.00 0.00 83 1011.9
20260507102023 3 122 0.0 0.0 0.00 0.00 0.00 81 1011.9
20260507101519 3 120 0.0 0.0 0.00 0.00 0.00 79 1012.0
20260507101016 3 121 0.0 0.0 0.00 0.00 0.00 78 1012.0
20260507100513 3 123 0.0 0.0 0.00 0.00 0.00 77 1011.9
20260507100011 3 127 0.0 0.0 0.00 0.00 0.00 77 1011.6
20260507095509 3 126 0.0 0.0 0.00 0.00 0.00 76 1011.8
20260507095005 3 122 0.0 0.0 0.00 0.00 0.00 76 1011.7
20260507094501 3 119 0.0 0.0 0.00 0.00 0.00 75 1011.7
20260507093959 4 116 0.0 0.0 0.00 0.00 0.00 74 1011.8
20260507093456 4 123 0.0 0.0 0.00 0.00 0.00 74 1011.7
20260507092954 4 129 0.0 0.0 0.00 0.00 0.00 74 1011.7
20260507092450 4 122 0.0 0.0 0.00 0.00 0.00 74 1011.5
20260507091947 3 134 0.0 0.0 0.00 0.00 0.00 75 1011.7
20260507091444 3 120 0.0 0.0 0.00 0.00 0.00 77 1011.7
20260507090939 3 120 0.0 0.0 0.00 0.00 0.00 77 1011.7
20260507090430 3 120 0.0 0.0 0.00 0.00 0.00 77 1011.7
20260507085927 4 120 0.0 0.0 0.00 0.00 0.00 76 1011.7
20260507085424 4 120 0.0 0.0 0.00 0.00 0.00 75 1011.7
20260507084921 5 120 0.0 0.0 0.00 0.00 0.00 74 1011.7
20260507084418 5 123 0.0 0.0 0.00 0.00 0.00 72 1011.7
20260507083915 5 120 0.0 0.0 0.00 0.00 0.00 72 1011.6
20260507083411 5 124 0.0 0.0 0.00 0.00 0.00 72 1011.7
20260507082907 5 119 0.0 0.0 0.00 0.00 0.00 71 1011.6
20260507082403 5 120 0.0 0.0 0.00 0.00 0.00 71 1011.7
20260507081900 5 120 0.0 0.0 0.00 0.00 0.00 70 1011.7
20260507081356 6 119 0.0 0.0 0.00 0.00 0.00 69 1012.0
20260507080853 6 118 0.0 0.0 0.00 0.00 0.00 68 1011.9
20260507080349 6 121 0.0 0.0 0.00 0.00 0.00 66 1011.8
20260507075845 6 121 0.0 1.6 0.00 0.00 0.00 65 1011.9
20260507075341 6 125 0.0 0.0 0.00 0.00 0.00 65 1011.8
20260507074837 7 135 1.6 1.6 0.00 0.00 0.00 64 1011.8
20260507074335 7 119 0.0 1.6 0.00 0.00 0.00 63 1011.9
20260507073832 7 132 0.0 1.6 0.00 0.00 0.00 65 1011.8
20260507073329 7 132 0.0 3.2 0.00 0.00 0.00 65 1011.8
20260507072826 7 129 0.0 1.6 0.00 0.00 0.00 65 1011.8
20260507072323 7 119 0.0 0.0 0.00 0.00 0.00 64 1011.8
20260507071821 7 125 0.0 1.6 0.00 0.00 0.00 64 1011.7
20260507071318 7 121 0.0 0.0 0.00 0.00 0.00 64 1011.6
20260507070814 7 177 1.6 1.6 0.00 0.00 0.00 63 1011.7
20260507070311 7 118 0.0 0.0 0.00 0.00 0.00 65 1011.7
20260507065808 7 132 0.0 0.0 0.00 0.00 0.00 62 1011.6
20260507065306 7 123 0.0 1.6 0.00 0.00 0.00 62 1011.8
20260507064802 7 120 0.0 1.6 0.00 0.00 0.00 64 1011.7
20260507064300 7 124 1.6 1.6 0.00 0.00 0.00 63 1011.8
20260507063758 7 136 0.0 1.6 0.00 0.00 0.00 63 1011.9
20260507063254 7 129 0.0 1.6 0.00 0.00 0.00 64 1011.9
20260507062751 7 126 0.0 0.0 0.00 0.00 0.00 63 1011.7
20260507062248 7 135 0.0 0.0 0.00 0.00 0.00 63 1011.8
20260507061747 7 122 0.0 1.6 0.00 0.00 0.00 62 1012.1
20260507061244 7 117 0.0 1.6 0.00 0.00 0.00 62 1012.0
20260507060742 7 120 1.6 3.2 0.00 0.00 0.00 61 1012.0
20260507060238 7 119 0.0 0.0 0.00 0.00 0.00 62 1012.2
20260507055735 7 166 1.6 1.6 0.00 0.00 0.00 60 1012.1
20260507055230 7 129 0.0 3.2 0.00 0.00 0.00 62 1012.2
20260507054726 7 124 0.0 1.6 0.00 0.00 0.00 62 1012.3
20260507054224 7 134 1.6 1.6 0.00 0.00 0.00 61 1012.2
20260507053721 7 275 3.2 4.8 0.00 0.00 0.00 62 1012.1
20260507053219 7 118 0.0 0.0 0.00 0.00 0.00 63 1011.9
20260507052718 7 115 0.0 1.6 0.00 0.00 0.00 62 1011.9
20260507052213 8 125 0.0 0.0 0.00 0.00 0.00 62 1012.1
20260507051712 8 125 0.0 1.6 0.00 0.00 0.00 61 1012.3
20260507051208 8 160 1.6 1.6 0.00 0.00 0.00 61 1012.2
20260507050704 8 117 0.0 4.8 0.00 0.00 0.00 60 1012.2
20260507050201 8 156 1.6 1.6 0.00 0.00 0.00 60 1012.1
20260507045658 8 221 3.2 3.2 0.00 0.00 0.00 60 1012.2
20260507045156 8 160 0.0 3.2 0.00 0.00 0.00 62 1012.1
20260507044652 8 314 3.2 3.2 0.00 0.00 0.00 63 1012.1
20260507044148 8 124 0.0 3.2 0.00 0.00 0.00 63 1012.0
20260507043644 8 129 0.0 0.0 0.00 0.00 0.00 64 1012.0
20260507043142 8 150 1.6 3.2 0.00 0.00 0.00 64 1012.1
20260507042638 8 119 0.0 1.6 0.00 0.00 0.00 66 1012.2
20260507042134 8 121 0.0 0.0 0.00 0.00 0.00 64 1012.1
20260507041631 8 179 1.6 3.2 0.00 0.00 0.00 63 1012.0
20260507041127 8 121 0.0 0.0 0.00 0.00 0.00 65 1011.8
20260507040624 8 139 1.6 1.6 0.00 0.00 0.00 66 1011.6
20260507040120 8 121 0.0 0.0 0.00 0.28 0.28 66 1011.9
20260507035616 8 121 0.0 1.6 0.00 0.28 0.28 65 1012.0
20260507035112 8 185 3.2 3.2 0.00 0.28 0.28 64 1011.7
20260507034609 8 120 0.0 3.2 0.00 0.28 0.28 66 1012.1
20260507034107 8 282 4.8 6.4 0.00 0.28 0.28 64 1012.0
20260507033605 8 139 0.0 1.6 0.00 0.28 0.28 65 1011.8
20260507033056 9 139 1.6 1.6 0.00 0.28 0.28 66 1011.8
20260507032554 9 127 1.6 3.2 0.00 0.28 0.28 66 1011.8
20260507032049 9 230 1.6 3.2 0.00 0.28 0.28 66 1011.6
20260507031546 9 144 1.6 3.2 0.00 0.28 0.28 66 1011.7
20260507031038 9 315 6.4 6.4 0.00 0.28 0.28 68 1011.8
20260507030534 9 110 1.6 3.2 0.00 0.28 0.28 71 1011.5
20260507030033 9 220 4.8 6.4 0.00 0.28 0.28 72 1011.6
20260507025529 9 117 0.0 4.8 0.00 0.28 0.28 75 1011.5
20260507025027 10 247 3.2 4.8 0.00 0.28 0.28 75 1011.5
20260507024524 10 103 0.0 4.8 0.00 0.28 0.28 74 1011.5
20260507024021 10 86 1.6 6.4 0.00 0.28 0.28 73 1011.3
20260507023516 10 110 1.6 3.2 0.00 0.28 0.28 74 1011.3
20260507023014 9 132 1.6 4.8 0.00 0.28 0.28 77 1011.1
20260507022510 10 118 0.0 3.2 0.00 0.28 0.28 79 1011.1
20260507022006 10 141 1.6 3.2 0.00 0.28 0.28 78 1011.0
20260507021501 10 135 0.0 1.6 0.00 0.28 0.28 80 1010.9
20260507020959 10 170 0.0 6.4 0.00 0.28 0.28 79 1011.1
20260507020456 10 153 1.6 6.4 0.00 0.28 0.28 80 1011.0
20260507015953 10 129 1.6 4.8 0.00 0.28 0.28 80 1011.1
20260507015451 10 141 0.0 1.6 0.00 0.28 0.28 82 1011.0
20260507014948 10 122 0.0 0.0 0.00 0.28 0.28 82 1011.2
20260507014444 10 128 0.0 1.6 0.00 0.28 0.28 81 1011.5
20260507013940 10 127 0.0 0.0 0.00 0.28 0.28 82 1011.3
20260507013437 10 123 0.0 0.0 0.00 0.28 0.28 82 1011.4
20260507012935 10 120 0.0 0.0 0.00 0.28 0.28 81 1011.4
20260507012432 10 120 0.0 0.0 0.00 0.28 0.28 81 1011.4
20260507011928 10 124 0.0 0.0 0.00 0.28 0.28 79 1011.5
20260507011426 10 185 1.6 3.2 0.00 0.28 0.28 78 1011.4
20260507010920 10 169 0.0 4.8 0.00 0.28 0.28 78 1011.6
20260507010415 10 136 1.6 3.2 0.00 0.28 0.28 78 1011.4
20260507005913 10 131 1.6 3.2 0.00 0.28 0.28 79 1011.4
20260507005410 10 142 3.2 3.2 0.00 0.28 0.28 78 1011.2
20260507004906 10 148 0.0 4.8 0.00 0.28 0.28 78 1011.3
20260507004403 10 165 3.2 3.2 0.00 0.28 0.28 78 1011.5
20260507003901 10 210 3.2 3.2 0.00 0.28 0.28 79 1011.3
20260507003355 11 106 1.6 4.8 0.00 0.28 0.28 78 1011.4
20260507002851 10 207 3.2 4.8 0.00 0.28 0.28 79 1011.1
20260507002347 10 143 1.6 4.8 0.00 0.28 0.28 80 1011.0
20260507001845 10 262 4.8 6.4 0.00 0.28 0.28 81 1010.9
20260507001341 10 151 0.0 1.6 0.00 0.28 0.28 83 1010.7
20260507000838 10 164 1.6 1.6 0.00 0.28 0.28 83 1010.9
20260507000335 11 144 1.6 3.2 0.00 0.28 0.28 82 1010.7
20260506235830 11 129 1.6 3.2 0.00 0.28 0.28 82 1010.7
20260506235326 11 127 1.6 3.2 0.00 0.28 0.28 81 1010.4
20260506234822 11 120 0.0 4.8 0.00 0.28 0.28 81 1010.3
20260506234320 11 215 4.8 6.4 0.00 0.28 0.28 82 1010.1
20260506233818 11 135 1.6 4.8 0.00 0.28 0.28 82 1010.3
20260506233313 11 132 0.0 1.6 0.00 0.28 0.28 83 1010.1
20260506232810 11 245 3.2 4.8 0.00 0.28 0.28 81 1010.1
20260506232306 11 124 0.0 4.8 0.00 0.28 0.28 82 1009.7
20260506231803 11 131 0.0 1.6 0.00 0.28 0.28 82 1009.8
20260506231301 11 258 4.8 6.4 0.00 0.28 0.28 81 1009.8
20260506230758 11 214 3.2 6.4 0.00 0.28 0.28 81 1009.8
20260506230255 11 155 1.6 4.8 0.00 0.28 0.28 82 1009.9
20260506225751 11 154 1.6 3.2 0.00 0.28 0.28 83 1010.1
20260506225248 11 247 3.2 4.8 0.00 0.28 0.28 83 1010.0
20260506224739 11 197 1.6 11.3 0.00 0.28 0.28 83 1010.1
20260506224236 11 119 3.2 11.3 0.00 0.28 0.28 82 1009.9
20260506223733 11 249 6.4 6.4 0.00 0.28 0.28 82 1010.0
20260506223228 11 151 1.6 9.7 0.00 0.28 0.28 82 1009.7
20260506222726 12 110 4.8 11.3 0.00 0.28 0.28 81 1009.6
20260506222221 12 261 6.4 9.7 0.00 0.28 0.28 81 1009.2
20260506221719 12 150 3.2 9.7 0.00 0.28 0.28 81 1009.2
20260506221217 12 253 8.0 11.3 0.00 0.28 0.28 81 1009.1
20260506220714 12 286 3.2 6.4 0.00 0.28 0.28 82 1008.8
20260506220208 12 283 8.0 12.9 0.00 0.28 0.28 80 1009.2
20260506215705 12 279 3.2 12.9 0.00 0.28 0.28 79 1009.1
20260506215201 12 247 4.8 6.4 0.00 0.28 0.28 80 1009.0
20260506214657 12 157 1.6 9.7 0.00 0.28 0.28 81 1009.0
20260506214155 12 251 9.7 12.9 0.00 0.28 0.28 80 1008.9
20260506213653 12 182 6.4 9.7 0.00 0.28 0.28 81 1008.8
20260506213150 13 289 6.4 6.4 0.00 0.28 0.28 82 1008.6
20260506212648 13 237 4.8 14.5 0.00 0.28 0.28 80 1008.5
20260506212142 13 287 3.2 12.9 0.00 0.28 0.28 79 1008.5
20260506211638 13 198 3.2 4.8 0.00 0.28 0.28 80 1008.3
20260506211135 13 273 9.7 17.7 0.00 0.28 0.28 79 1008.1
20260506210632 13 216 3.2 9.7 0.00 0.28 0.28 79 1008.2
20260506210129 13 282 4.8 9.7 0.00 0.28 0.28 81 1008.2
20260506205626 14 277 4.8 11.3 0.00 0.28 0.28 81 1008.2
20260506205126 13 218 3.2 6.4 0.00 0.28 0.28 81 1007.9
20260506204624 13 262 6.4 11.3 0.00 0.28 0.28 81 1007.9
20260506204121 13 229 6.4 12.9 0.00 0.28 0.28 83 1008.0
20260506203614 13 283 9.7 12.9 0.00 0.28 0.28 84 1007.9
20260506203110 14 281 8.0 12.9 0.00 0.28 0.28 83 1007.9
20260506202608 14 295 4.8 6.4 0.00 0.28 0.28 83 1007.8
20260506202104 14 250 4.8 11.3 0.00 0.28 0.28 84 1007.8
20260506201602 14 250 8.0 11.3 0.00 0.28 0.28 83 1007.8
20260506201058 14 329 6.4 11.3 0.00 0.28 0.28 84 1007.5
20260506200554 14 275 4.8 9.7 0.00 0.28 0.28 85 1007.7
20260506200051 14 244 6.4 12.9 0.00 0.28 0.28 85 1007.4
20260506195548 14 291 6.4 11.3 0.00 0.28 0.28 86 1007.6
20260506195044 13 253 9.7 12.9 0.00 0.28 0.28 86 1007.5
20260506194543 14 328 12.9 14.5 0.00 0.28 0.28 86 1007.4
20260506194038 15 249 4.8 9.7 0.00 0.28 0.28 86 1007.3
20260506193536 15 278 9.7 14.5 0.00 0.28 0.28 86 1007.3
20260506193033 15 285 8.0 20.9 0.00 0.28 0.28 86 1007.1
20260506192529 15 185 4.8 14.5 0.00 0.28 0.28 85 1007.1
20260506192025 15 270 9.7 12.9 0.00 0.28 0.28 84 1007.2
20260506191522 15 232 6.4 16.1 0.00 0.28 0.28 85 1007.0
20260506191018 15 275 8.0 12.9 0.00 0.28 0.28 86 1007.1
20260506190516 15 120 1.6 11.3 0.00 0.28 0.28 87 1006.9
20260506190013 15 224 1.6 4.8 0.00 0.28 0.28 88 1006.8
20260506185510 16 143 3.2 4.8 0.00 0.28 0.28 87 1006.9
20260506185006 16 235 9.7 12.9 0.00 0.28 0.28 87 1006.8
20260506184504 16 152 1.6 3.2 0.00 0.28 0.28 89 1006.8
20260506184001 15 294 3.2 6.4 0.00 0.28 0.28 89 1006.9
20260506183456 15 210 3.2 4.8 0.00 0.28 0.28 90 1006.9
20260506182953 15 172 3.2 3.2 0.00 0.28 0.28 92 1006.9
20260506182450 15 193 1.6 4.8 0.00 0.28 0.28 93 1006.9
20260506181947 14 161 3.2 4.8 0.00 0.28 0.28 92 1006.9
20260506181446 14 257 4.8 6.4 0.00 0.28 0.28 93 1006.8
20260506180942 14 228 4.8 4.8 0.00 0.28 0.28 94 1006.9
20260506180438 14 256 6.4 11.3 0.00 0.28 0.28 95 1007.0
20260506175935 14 285 3.2 4.8 0.00 0.28 0.28 95 1007.0
20260506175432 14 235 3.2 11.3 0.13 0.28 0.28 96 1006.7
20260506174928 14 152 6.4 6.4 0.13 0.28 0.28 96 1006.8
20260506174426 14 235 4.8 4.8 0.00 0.25 0.25 96 1006.9
20260506173917 14 265 3.2 4.8 0.00 0.25 0.25 96 1006.7
20260506173414 14 222 3.2 9.7 0.00 0.25 0.25 95 1006.4
20260506172912 14 119 1.6 1.6 0.00 0.25 0.25 95 1006.8
20260506172408 15 140 3.2 4.8 0.00 0.25 0.25 95 1006.5
20260506171905 15 176 6.4 9.7 0.00 0.25 0.25 94 1006.5
20260506171402 14 155 1.6 3.2 0.00 0.25 0.25 94 1006.5
20260506170900 15 202 3.2 3.2 0.00 0.25 0.25 93 1006.4
20260506170355 15 167 3.2 4.8 0.00 0.25 0.25 92 1006.3
20260506165849 15 141 1.6 3.2 0.00 0.25 0.25 91 1006.5
20260506165346 15 143 3.2 3.2 0.00 0.25 0.25 91 1006.3
20260506164842 15 238 6.4 9.7 0.00 0.25 0.25 91 1006.2
20260506164339 16 168 0.0 4.8 0.00 0.25 0.25 92 1006.3
20260506163837 15 188 1.6 6.4 0.00 0.25 0.25 91 1006.2
20260506163331 15 153 1.6 6.4 0.00 0.25 0.25 93 1006.4
20260506162827 15 127 1.6 1.6 0.00 0.25 0.25 94 1006.4
20260506162325 15 142 3.2 4.8 0.00 0.25 0.25 93 1006.4
20260506161822 15 162 3.2 3.2 0.00 0.25 0.25 94 1006.5
20260506161319 15 182 3.2 4.8 0.00 0.25 0.25 94 1006.5
20260506160812 15 162 1.6 3.2 0.00 0.25 0.25 94 1006.5
20260506160308 15 226 3.2 4.8 0.00 0.25 0.25 95 1006.4
20260506155807 14 253 3.2 6.4 0.00 0.25 0.25 95 1006.2
20260506155306 13 124 1.6 3.2 0.00 0.25 0.25 95 1006.5
20260506153415 13 194 3.2 4.8 0.00 0.25 0.25 94 1006.5
20260506152913 13 152 1.6 4.8 0.00 0.25 0.25 93 1006.4
20260506152409 13 126 1.6 3.2 0.00 0.25 0.25 93 1006.2
20260506151908 13 175 1.6 3.2 0.00 0.25 0.25 93 1006.3
20260506151404 13 139 1.6 3.2 0.00 0.25 0.25 92 1006.3
20260506150902 13 232 3.2 4.8 0.00 0.25 0.25 93 1006.3
20260506150358 13 302 4.8 4.8 0.00 0.25 0.25 93 1006.3
20260506145855 13 124 1.6 3.2 0.00 0.25 0.25 93 1006.2
20260506145351 13 151 3.2 4.8 0.00 0.25 0.25 93 1006.1
20260506144849 13 237 3.2 4.8 0.00 0.25 0.25 93 1006.1
20260506144345 13 167 1.6 4.8 0.00 0.25 0.25 93 1005.8
20260506143844 13 246 8.0 11.3 0.00 0.25 0.25 93 1006.0
20260506143340 13 120 3.2 3.2 0.00 0.25 0.25 93 1006.1
20260506142839 13 146 3.2 4.8 0.00 0.25 0.25 93 1006.1
20260506142336 13 130 3.2 9.7 0.00 0.25 0.25 93 1005.9
20260506141835 13 130 1.6 6.4 0.00 0.25 0.25 93 1006.0
20260506141332 13 136 1.6 3.2 0.00 0.25 0.25 93 1006.0
20260506140830 13 212 1.6 3.2 0.00 0.25 0.25 93 1005.9
20260506140327 13 263 3.2 4.8 0.00 0.25 0.25 93 1005.9
20260506135824 13 211 3.2 4.8 0.00 0.25 0.25 93 1005.8
20260506135320 13 147 3.2 3.2 0.00 0.25 0.25 92 1005.8
20260506134817 13 154 3.2 4.8 0.00 0.25 0.25 93 1006.0
20260506134313 13 149 1.6 4.8 0.00 0.25 0.25 93 1006.0
20260506133810 13 121 1.6 3.2 0.18 0.25 0.25 93 1006.0
20260506133307 13 178 1.6 1.6 0.18 0.25 0.25 93 1006.0
20260506132804 13 207 3.2 4.8 0.00 0.23 0.23 93 1006.0
20260506132301 13 157 3.2 3.2 0.00 0.23 0.23 92 1006.0
20260506131759 13 127 3.2 4.8 0.00 0.23 0.23 93 1006.1
20260506131254 13 186 1.6 3.2 0.00 0.23 0.23 92 1006.2
20260506130752 13 243 3.2 4.8 0.00 0.23 0.23 91 1006.2
20260506130248 13 250 3.2 4.8 0.00 0.23 0.23 92 1006.1
20260506125747 12 145 1.6 3.2 0.00 0.23 0.23 92 1006.1
20260506125244 12 122 0.0 1.6 0.00 0.23 0.23 92 1006.1